Theta_e
319 319 318 318 317 317 318 318 317 316 314 312 313 314 314 313 313 313 313 313 314 314 316 316 313 311 318 320 316 318 318 320 322 322 323 327 335 335 339 333 329 328 327 323 324 320 322
319 318 317 317 318 318 318 318 318 316 315 311 312 314 314 314 313 313 313 315 317 318 317 314 311 314 318 314 318 324 319 318 319 323 329 329 338 337 332 326 324 325 322 319 319 321 321
319 317 317 317 318 318 319 319 319 317 317 312 312 313 314 314 313 313 315 318 319 317 313 312 313 318 322 314 320 327 321 323 323 323 330 333 333 329 322 319 321 320 321 318 320 320 322
318 316 316 317 318 318 319 320 320 320 318 313 312 313 314 314 313 315 319 320 317 313 313 314 315 321 314 318 326 322 321 327 331 327 326 326 328 325 318 319 319 321 318 318 320 321 320
317 316 318 318 319 319 321 321 321 322 319 315 312 312 314 314 313 319 321 319 314 314 315 315 322 322 323 326 323 323 325 327 329 329 328 327 325 322 318 319 318 317 319 320 321 322 322
318 318 319 319 320 320 321 322 322 323 320 316 314 312 314 314 314 321 319 319 318 321 320 322 323 322 323 325 324 321 321 324 318 318 319 322 316 319 315 317 320 323 321 320 320 322 322
319 319 319 320 320 321 321 322 323 323 321 318 315 313 314 315 316 320 319 318 311 313 317 320 323 323 322 323 323 321 321 319 319 318 318 317 316 316 316 316 319 322 321 322 323 323 322
318 318 319 319 320 320 321 321 322 323 323 321 318 316 316 317 317 320 318 314 315 316 315 314 315 316 318 319 319 319 321 320 319 318 318 316 317 317 318 318 319 320 322 322 321 321 319
318 318 318 318 319 319 320 321 322 323 324 324 321 317 317 319 316 319 319 318 318 316 312 315 316 317 319 318 319 318 319 319 319 319 318 317 319 320 320 321 321 319 319 319 319 319 318
321 321 321 320 319 319 319 320 321 323 324 324 323 319 318 319 315 314 320 318 319 317 317 324 321 321 319 318 319 319 319 320 319 319 317 317 319 322 323 323 320 322 320 321 322 321 322
321 321 322 322 322 322 321 320 321 323 324 324 324 321 318 317 314 313 319 318 319 316 327 325 321 321 318 319 320 321 320 320 320 321 320 321 322 322 322 322 322 322 322 322 323 321 319
319 319 320 321 321 322 323 322 322 323 324 325 325 323 318 318 315 316 316 319 317 322 326 322 320 319 319 319 319 321 321 320 320 321 320 320 322 322 322 322 322 322 322 319 317 316 321
315 316 317 319 320 322 322 323 323 323 324 325 325 324 319 317 315 317 318 315 321 325 322 321 320 319 318 319 320 319 321 320 318 320 319 321 324 322 321 323 321 319 318 321 323 323 324
310 314 312 313 317 320 322 323 323 323 324 325 325 322 320 321 319 319 318 318 327 326 321 320 320 319 320 318 320 320 319 317 321 320 320 322 323 322 322 323 323 321 319 321 329 327 327
304 304 307 305 311 317 320 322 323 323 324 324 323 320 320 322 321 319 313 319 323 322 321 321 319 320 321 321 321 321 320 322 322 320 321 321 322 321 323 321 320 320 319 318 323 322 324
305 303 303 304 308 312 317 321 322 323 324 322 315 318 319 322 321 316 312 318 319 320 321 320 321 321 322 321 321 320 322 321 323 321 317 320 321 321 323 319 320 321 320 327 322 327 331
306 306 306 304 307 307 315 319 321 322 323 318 316 316 319 321 320 309 314 315 319 321 320 320 320 322 321 322 322 323 323 324 322 322 321 320 319 321 321 321 322 320 323 324 320 322 327
305 306 306 306 306 310 307 315 318 320 322 315 311 317 320 321 315 308 315 318 319 321 318 319 321 322 321 322 323 324 325 324 322 322 323 320 315 320 322 319 320 319 324 321 323 325 322
304 305 305 306 306 308 309 308 315 317 314 309 309 311 321 318 319 314 315 320 321 321 320 318 320 320 319 320 322 323 324 323 322 322 322 320 317 320 321 319 318 323 322 322 319 318 325
303 304 304 305 306 307 309 308 314 317 316 308 311 319 316 312 310 318 319 319 321 321 320 318 318 319 320 321 318 321 322 323 323 326 329 322 316 319 321 321 320 322 321 321 322 321 323
303 303 303 304 305 306 307 309 313 315 317 310 311 318 316 319 319 318 318 318 320 321 319 318 319 317 319 319 318 318 318 318 318 325 319 316 320 318 318 319 320 321 322 325 334 326 334
302 303 303 303 304 304 306 309 311 313 316 312 310 318 314 317 315 317 316 318 321 321 320 320 319 318 316 317 317 317 316 317 317 318 317 313 318 319 319 318 319 323 323 330 335 336 337
302 302 302 303 303 304 305 308 310 312 316 312 315 313 314 317 316 318 318 321 321 318 319 318 317 317 318 316 314 313 312 312 313 314 313 314 314 314 316 317 323 325 327 333 334 336 336
302 302 302 302 303 303 304 305 309 313 315 309 310 311 314 320 317 318 320 320 320 320 319 318 317 317 318 315 314 313 313 311 311 311 310 312 313 315 317 324 331 325 332 333 335 338 336
301 302 302 302 302 303 303 304 308 310 314 313 308 312 315 318 317 320 321 320 317 315 317 318 319 317 310 312 313 313 314 313 314 317 321 310 311 317 322 328 329 334 332 335 335 334 336
301 301 301 301 302 302 303 303 305 309 313 313 311 307 311 315 316 320 321 319 317 316 316 317 317 314 312 310 313 317 317 316 317 316 324 324 316 321 331 335 337 331 334 333 332 335 333
302 301 301 301 301 302 302 303 304 307 312 313 309 309 312 317 317 317 318 317 315 315 315 313 317 316 313 312 315 315 316 315 318 318 321 326 328 331 332 335 335 332 334 333 336 329 332
301 301 301 301 301 301 302 303 303 306 309 312 311 309 308 311 313 314 316 316 315 313 316 314 315 314 315 317 316 316 315 317 325 325 331 329 329 329 329 332 332 332 335 334 327 328 332
301 301 301 301 301 301 301 302 303 305 308 312 309 311 310 309 309 314 314 316 316 315 312 311 313 314 314 315 317 317 321 319 323 326 324 326 326 327 328 330 326 325 330 329 329 331 333
Wind_Speed
19 21 21 21 23 24 26 27 29 30 30 31 32 31 32 33 34 33 31 25 19 14 18 15 10 4 1 1 8 4 4 6 11 10 7 5 4 4 2 3 5 4 4 3 6 10 7
19 21 21 22 23 25 27 28 30 31 32 34 35 35 36 36 37 35 28 21 22 22 13 6 3 2 2 2 2 4 6 6 6 9 7 6 5 5 2 3 1 4 7 9 8 14 8
19 20 21 22 23 25 27 29 31 32 34 36 37 38 39 38 37 34 25 25 24 8 2 3 4 4 1 9 1 2 9 4 5 8 4 7 5 2 1 5 0 2 7 9 14 4 4
19 20 21 22 24 25 27 30 32 33 35 36 38 40 39 39 37 28 26 26 5 4 5 6 4 3 6 3 8 7 13 9 8 7 8 7 3 1 3 3 7 4 3 5 6 2 5
19 20 22 23 24 26 28 30 33 35 36 38 40 42 41 41 36 24 27 9 7 7 6 6 3 2 7 7 4 7 19 8 8 8 8 5 2 2 5 3 6 7 2 5 9 4 3
18 20 21 23 25 27 29 31 34 36 38 39 41 42 42 40 30 22 24 6 4 4 5 2 1 2 5 4 7 3 11 17 4 2 3 3 4 1 3 4 4 3 2 5 7 9 11
19 20 21 23 25 27 30 32 34 36 38 40 41 42 42 39 23 19 23 1 5 4 2 4 1 3 6 9 10 4 5 8 3 5 1 3 4 7 11 8 7 4 4 7 14 17 2
18 20 21 23 26 28 30 32 34 36 37 39 41 42 42 39 17 11 20 6 5 7 8 6 8 7 15 5 4 4 6 4 2 4 3 5 5 12 4 5 7 8 7 13 10 12 6
18 20 21 23 26 28 30 32 34 36 37 38 40 43 43 39 8 9 7 7 19 7 1 8 5 5 4 10 5 6 8 4 4 3 4 6 10 6 4 7 4 4 5 5 9 3 2
18 20 21 23 25 27 30 32 34 35 37 38 40 43 44 38 3 13 6 15 19 5 4 5 4 6 4 5 3 6 11 6 3 6 5 5 4 4 3 1 3 1 4 6 4 5 2
18 19 21 23 25 27 29 32 34 35 37 39 41 42 43 22 10 4 6 18 15 4 3 2 2 1 2 4 3 3 4 3 4 3 5 6 5 6 8 6 5 4 5 5 2 2 3
19 21 22 22 24 26 28 31 34 35 37 39 41 40 40 13 12 5 14 19 2 4 1 3 1 3 2 2 3 3 2 4 2 1 1 5 2 4 2 4 1 5 3 5 5 3 4
18 20 22 23 24 25 26 29 33 35 37 39 39 39 30 13 3 10 16 3 5 3 4 6 3 4 2 4 4 5 3 2 2 2 5 6 3 4 4 6 4 9 7 5 5 5 4
18 18 21 22 24 25 25 28 32 35 36 39 39 36 24 9 9 12 6 5 3 2 3 3 3 4 4 6 4 6 3 3 5 4 3 2 5 5 6 1 3 3 4 4 3 2 5
18 19 20 21 22 25 25 27 30 34 35 40 37 27 11 3 4 3 5 4 3 2 3 5 4 6 6 5 4 6 4 2 2 2 4 3 4 4 3 4 3 6 2 3 3 2 2
19 19 18 20 19 23 25 26 29 33 35 35 29 14 9 7 1 5 5 3 3 3 6 3 3 2 5 6 6 6 4 3 1 2 4 5 1 1 5 5 4 1 3 4 4 3 3
18 19 20 20 16 18 23 24 27 31 34 26 9 4 8 7 1 5 2 4 5 7 4 3 4 1 2 3 2 3 4 2 2 2 2 4 3 5 3 3 2 5 4 4 3 4 3
18 19 20 21 18 17 19 24 25 29 33 20 6 3 2 9 3 1 0 2 6 7 5 3 3 2 2 1 2 3 1 3 8 2 1 2 5 1 4 5 5 5 2 4 4 6 4
17 18 19 20 20 16 18 18 23 23 25 12 2 3 4 1 2 3 6 5 2 6 5 5 3 1 2 0 2 2 4 6 7 5 2 2 2 3 8 6 5 1 3 3 2 3 5
16 17 18 19 20 19 16 18 18 18 18 12 2 3 4 4 1 2 4 4 6 6 2 5 4 2 2 3 6 4 7 4 7 4 9 7 3 6 6 6 2 6 6 6 3 3 3
17 17 17 18 19 20 18 17 15 17 17 8 1 3 2 3 4 3 2 3 5 8 6 5 5 4 1 4 3 3 3 6 5 5 4 4 4 6 6 6 5 7 9 8 5 6 5
17 18 18 18 17 18 18 16 12 15 16 2 0 2 4 3 3 5 4 5 5 5 3 7 1 1 3 5 5 2 0 1 5 3 3 2 3 3 4 8 7 5 11 8 7 5 7
17 17 17 18 18 17 17 12 9 11 10 2 2 2 3 3 3 2 2 3 3 6 5 2 3 2 1 6 7 8 8 5 7 7 3 5 5 2 5 3 6 6 6 5 3 4 4
17 17 17 17 17 17 17 15 5 8 9 4 2 2 2 4 2 4 2 2 4 6 4 5 4 1 3 2 3 4 3 7 9 12 7 6 6 4 3 2 3 6 3 2 4 6 6
18 18 17 16 16 16 16 16 8 7 9 7 4 1 1 3 3 5 1 2 6 6 3 4 3 3 5 3 4 6 6 7 5 2 3 8 4 3 4 4 4 3 3 2 1 7 6
17 17 17 16 15 15 15 15 12 8 9 9 10 7 2 1 5 1 0 1 2 3 6 4 5 7 5 3 3 3 3 3 6 10 5 6 4 4 2 2 2 4 1 2 2 5 5
18 17 16 16 16 15 14 14 15 10 9 13 6 9 3 2 4 4 4 3 2 1 2 4 6 7 3 2 2 3 4 3 3 3 5 4 3 2 2 3 5 5 3 3 1 6 3
20 18 17 17 16 16 15 13 14 12 10 13 7 9 6 3 5 4 4 4 1 2 2 4 4 3 3 3 3 3 3 3 2 3 1 2 1 1 0 2 5 1 3 5 7 4 4
19 19 17 16 17 16 15 14 14 10 12 11 5 1 6 4 6 8 18 22 16 14 5 2 3 2 4 3 0 1 1 1 3 3 1 1 5 4 7 5 5 5 6 5 3 7 4
Wind_Direction
5 6 7 8 6 5 5 4 3 2 1 360 358 357 354 351 350 346 340 337 334 326 311 305 302 308 99 49 254 271 286 125 149 170 174 172 154 154 221 276 314 224 286 262 246 274 235
4 4 5 4 3 3 3 2 2 1 1 0 359 357 355 352 349 346 339 338 329 316 307 301 253 166 135 275 282 287 190 162 169 166 169 189 181 191 238 254 202 293 292 295 316 303 291
1 3 2 3 1 1 1 2 2 1 0 359 358 356 354 352 350 345 341 336 325 334 21 121 151 133 129 239 337 258 199 222 231 207 169 212 158 108 340 304 250 279 327 329 288 263 280
1 1 0 1 1 0 1 1 0 360 0 358 357 355 353 352 350 346 343 336 15 66 99 123 126 122 245 239 306 246 208 246 259 238 235 259 175 184 173 300 5 328 50 355 280 273 303
359 358 359 360 360 359 359 360 360 359 358 357 356 354 352 352 351 349 349 9 67 79 99 119 94 106 277 305 248 252 212 220 233 255 249 271 105 172 31 57 359 3 264 305 315 313 17
357 357 358 359 359 357 358 358 358 357 356 355 355 354 352 352 354 353 356 65 52 69 84 67 312 360 281 295 313 212 209 220 211 61 16 66 58 65 43 78 243 245 269 267 251 299 341
353 354 355 355 356 356 356 355 355 355 354 354 353 353 351 353 352 359 9 346 9 354 58 235 259 271 275 303 303 243 168 144 135 80 144 14 80 237 245 199 216 215 217 256 281 282 353
349 350 351 352 353 353 353 353 352 351 351 351 351 351 350 351 355 17 40 64 9 278 309 237 242 256 264 260 311 299 158 136 128 191 133 18 250 244 237 230 215 220 243 270 288 276 156
347 348 349 350 350 350 350 349 349 348 347 347 348 348 347 348 349 2 357 42 360 1 20 298 219 211 217 149 212 255 140 149 189 213 164 163 244 329 274 290 252 233 192 247 222 289 236
345 346 347 348 347 347 347 346 345 344 344 344 344 346 345 347 17 341 306 342 342 9 42 281 278 275 167 155 266 224 191 158 171 200 190 219 287 273 348 175 167 28 227 262 278 55 263
342 342 343 344 345 344 344 343 343 341 342 342 340 343 342 345 309 293 325 329 337 90 40 195 241 264 27 147 319 290 159 88 223 225 85 263 3 16 32 335 353 290 341 314 334 56 79
344 344 341 340 341 341 341 341 341 340 339 339 336 340 335 330 306 313 327 328 81 39 337 345 40 351 2 272 255 287 132 68 104 195 307 241 275 80 290 323 331 284 329 43 46 69 34
338 343 342 341 339 338 339 339 340 339 339 338 333 335 329 313 277 325 332 30 38 115 339 327 328 350 314 273 289 189 185 66 201 349 340 351 12 354 22 2 330 35 41 355 8 11 239
325 329 332 340 343 340 339 339 339 338 339 337 332 333 328 306 294 316 353 52 85 330 318 318 328 333 49 351 6 331 94 43 35 69 70 71 333 21 338 115 252 343 114 143 281 228 263
333 322 321 328 338 344 342 340 340 339 340 339 335 335 322 332 317 1 64 67 175 300 289 330 347 60 339 347 26 35 49 106 48 30 108 77 303 326 8 342 68 312 18 209 150 34 60
341 335 327 331 334 341 343 340 340 341 342 343 334 325 315 325 199 33 69 233 240 243 320 71 62 63 16 327 28 25 25 314 67 46 143 196 318 278 299 39 10 125 253 19 11 346 307
345 345 343 341 330 333 341 341 341 342 346 348 345 2 13 45 245 44 107 246 287 291 266 181 195 258 11 11 299 356 323 338 46 306 26 116 109 290 15 25 304 353 19 30 119 145 198
341 343 344 342 338 330 330 344 345 347 351 358 2 344 334 350 33 27 2 227 293 319 346 328 108 111 126 142 328 331 27 283 328 195 98 51 130 130 231 301 273 177 96 121 110 292 236
335 338 341 343 344 340 333 337 346 354 0 347 353 265 352 345 84 335 306 300 289 339 324 10 16 45 179 199 345 220 1 356 9 63 108 187 17 24 351 354 347 211 263 158 121 83 227
331 333 336 340 343 343 342 342 343 350 354 349 7 343 325 35 50 129 353 296 327 307 281 349 305 17 45 40 17 357 354 13 358 58 50 85 112 150 192 216 225 305 299 307 154 165 256
326 328 331 335 339 342 341 343 343 347 349 339 47 267 187 316 331 352 303 333 345 1 351 332 348 49 131 50 34 33 349 332 333 22 47 86 206 186 231 239 222 233 263 293 240 220 191
319 323 325 329 333 338 341 339 344 337 342 300 253 19 353 288 310 342 352 19 352 330 256 317 183 112 95 134 158 267 171 185 252 311 85 24 264 182 255 264 258 263 286 254 241 236 262
317 320 320 323 327 332 336 333 337 332 344 328 332 337 113 282 348 25 172 348 324 348 296 289 269 312 188 211 188 212 202 197 213 223 230 175 164 126 259 282 341 319 250 212 248 220 203
301 311 317 316 320 323 330 329 319 324 316 296 331 352 83 265 199 211 351 334 314 311 258 296 350 217 283 3 88 51 334 257 250 253 185 187 165 146 258 43 244 259 345 230 245 249 228
294 297 305 312 312 316 322 326 297 298 294 277 260 273 189 261 228 296 254 288 315 306 272 285 297 224 312 33 35 16 338 354 316 281 312 217 131 190 166 188 286 293 290 280 278 284 217
287 288 294 302 303 308 312 320 302 271 307 262 266 240 245 167 242 162 277 309 264 292 324 282 309 312 42 77 76 131 245 262 315 326 83 74 91 118 115 163 255 231 213 295 89 289 237
280 282 286 292 297 298 303 309 312 269 303 255 260 210 244 235 263 179 204 198 204 109 260 299 325 339 20 71 119 174 244 231 266 270 324 347 14 172 212 185 267 260 141 153 43 245 277
269 274 278 284 289 291 294 298 307 272 272 239 261 229 209 230 277 234 225 196 342 105 188 286 5 337 24 66 143 223 177 249 313 266 265 199 84 314 111 48 285 183 122 169 217 271 254
266 267 269 276 282 285 286 290 300 265 263 247 249 177 228 210 254 284 277 260 240 218 170 271 220 242 208 90 296 128 304 355 171 280 128 338 185 203 179 221 209 280 243 282 219 228 244